SCP
0 0 0 0 0 0 0 0 0 0 0 0 0 0 0 1 1 1 1 1 1 2 2 2 2 2 1 1 1 1 1 1 1 1 1 1 0 0 0 0 0 0 0 0
0 0 0 0 0 0 0 0 0 0 0 0 0 0 0 0 0 0 1 1 1 2 2 2 2 2 1 1 1 1 1 1 1 1 1 0 0 0 0 0 0 0 0 1
0 0 0 0 0 0 0 0 0 0 0 0 0 0 0 0 0 0 0 1 1 2 2 2 2 2 1 1 1 1 1 1 1 1 1 0 0 0 0 0 0 0 0 1
0 0 0 0 0 0 0 0 0 0 0 0 0 0 0 0 0 0 0 0 1 2 3 3 3 2 2 1 1 1 1 1 1 1 1 1 1 0 0 0 0 0 0 0
0 0 0 0 0 0 0 0 0 0 0 0 0 0 0 1 1 0 0 0 1 1 2 3 3 3 2 2 2 1 1 1 1 1 1 1 1 1 0 0 0 0 0 0
0 0 0 0 0 0 0 0 0 0 0 0 0 0 1 1 1 0 0 1 1 1 2 3 3 3 3 2 2 2 1 1 1 1 1 1 1 1 1 0 0 0 0 0
0 0 0 0 0 0 0 0 0 0 0 0 0 1 1 1 1 1 1 1 1 2 2 3 4 4 3 3 2 2 2 2 1 1 1 1 1 1 1 1 1 0 0 0
0 0 0 0 0 0 0 0 0 0 0 0 1 1 1 1 1 1 1 1 1 2 2 3 4 4 3 3 3 2 2 2 2 1 1 1 1 1 1 1 1 1 1 1
0 0 0 0 0 0 1 0 0 0 0 0 0 1 1 1 1 1 1 1 1 1 2 2 3 3 3 3 3 3 3 2 2 2 1 1 2 2 2 1 1 1 1 1
0 0 0 0 0 0 0 0 0 0 0 0 0 1 1 1 1 1 1 1 1 1 1 2 2 3 2 3 3 3 3 3 2 2 2 2 3 3 2 2 1 1 1 1
0 0 0 0 0 0 0 0 0 0 0 0 0 0 1 1 1 1 2 1 1 1 1 1 2 2 2 2 3 3 3 3 3 2 2 3 3 3 3 2 1 1 1 1
0 0 0 0 0 0 0 0 0 0 0 0 0 0 0 0 1 1 2 2 1 1 1 1 2 2 2 3 3 3 3 3 3 3 3 3 3 3 2 2 2 1 1 1
0 0 0 0 0 0 0 0 0 0 0 0 0 0 0 0 0 1 2 2 2 1 1 1 2 3 3 3 3 3 3 3 3 3 3 3 3 3 2 2 1 1 2 1
0 0 0 0 0 0 0 0 0 0 0 0 0 0 0 0 1 1 2 2 2 2 2 2 3 3 4 4 4 3 3 3 3 3 3 3 3 3 2 2 1 1 1 2
0 0 0 0 0 0 0 0 0 0 0 0 0 0 0 1 1 1 2 2 3 3 2 2 4 5 5 4 3 3 3 3 3 3 2 2 2 2 2 2 2 2 2 2
0 0 0 0 0 0 0 0 0 0 0 0 0 0 1 1 2 2 3 3 3 3 3 3 5 7 7 4 3 3 3 3 3 2 2 2 2 2 2 2 2 2 2 2
0 0 0 0 0 0 0 0 0 0 0 0 0 1 1 2 2 2 3 4 4 4 4 4 5 7 6 4 3 3 3 3 3 3 3 2 2 1 2 2 2 3 3 3
0 0 0 0 0 1 0 0 0 0 0 0 1 1 2 3 2 2 2 3 4 5 5 5 4 4 4 3 4 5 5 5 4 4 3 2 2 2 2 2 3 3 4 4
0 0 0 0 0 0 0 0 0 0 0 1 1 2 3 3 3 2 2 2 3 4 4 4 3 2 2 3 5 6 7 7 6 5 3 2 2 2 2 2 3 4 5 5
0 0 0 0 0 0 0 0 0 0 0 1 2 2 3 3 3 2 2 2 2 2 2 2 2 2 1 2 4 5 6 6 6 4 3 2 2 2 2 2 2 4 5 5
0 0 0 0 0 0 0 0 0 0 1 1 2 2 2 2 2 2 2 2 2 2 2 2 2 2 1 1 2 3 4 4 4 4 4 3 3 2 2 2 2 3 4 5
0 0 0 0 0 0 0 0 0 1 1 1 2 2 2 2 2 2 2 2 2 2 2 3 3 3 2 2 2 2 3 3 3 4 5 4 4 3 2 2 2 3 4 4
0 0 0 0 0 0 0 0 0 1 1 1 1 1 2 2 2 2 2 2 2 2 2 3 4 4 4 3 3 3 3 2 3 4 5 5 4 3 3 2 2 2 3 3
0 0 0 0 0 0 0 0 0 1 1 1 1 1 1 1 1 1 2 2 2 2 2 3 3 4 4 4 3 3 3 2 3 4 4 4 4 3 3 2 2 2 2 2
0 0 0 0 0 0 0 0 0 1 1 1 1 1 1 1 1 1 2 2 2 3 3 3 3 3 3 3 2 2 1 1 2 3 3 3 2 2 2 1 1 1 1 1
0 0 0 0 0 0 0 0 0 1 1 1 1 1 1 0 1 1 2 2 3 3 3 3 3 3 2 2 1 0 0 0 1 2 2 2 1 1 1 0 0 0 0 0
Wind_Speed
2 4 1 5 5 4 3 2 1 3 2 2 2 3 4 6 6 7 7 7 8 8 6 5 6 7 7 6 6 6 6 5 4 3 2 2 2 1 1 2 2 3 3 3
4 2 6 3 2 3 3 2 1 2 1 2 1 4 3 6 8 8 9 9 9 7 5 6 6 7 7 7 7 6 6 5 5 4 3 2 2 1 1 1 1 2 3 3
5 5 3 3 2 2 1 4 4 2 2 3 2 5 3 2 4 5 6 7 7 10 10 8 8 8 7 8 8 8 7 6 5 4 2 2 1 1 0 1 1 2 2 2
4 4 3 3 3 4 3 4 4 3 2 1 1 3 6 3 3 5 6 6 8 9 9 9 9 9 9 9 8 7 6 6 5 5 4 4 3 3 3 2 1 1 2 2
4 3 3 4 5 6 5 1 3 3 3 2 2 1 7 2 4 7 7 7 8 9 10 10 11 11 10 8 7 6 5 5 5 5 6 5 3 3 2 1 2 2 1 2
4 2 3 5 2 4 4 7 7 6 5 1 2 2 7 4 6 6 6 6 7 8 9 9 8 7 7 6 6 6 6 5 5 5 5 5 5 4 2 2 2 2 1 1
4 3 2 2 3 2 5 6 4 5 4 4 2 2 8 6 5 6 6 6 6 6 7 7 7 8 8 8 8 7 7 6 6 6 6 5 5 5 5 4 3 3 2 2
2 5 3 1 5 5 4 8 8 5 4 4 1 4 7 5 3 3 2 2 4 5 6 8 8 8 8 8 8 7 7 7 6 6 6 5 5 4 3 4 4 3 3 3
6 5 4 1 1 7 5 3 5 7 2 0 4 5 7 3 4 3 1 2 3 4 5 6 6 7 7 7 8 8 8 6 6 6 5 5 5 5 4 4 4 3 3 3
7 3 4 3 4 5 5 8 6 6 5 2 4 3 5 5 4 3 1 1 2 2 3 4 5 5 6 6 6 6 6 7 7 6 6 6 5 5 5 4 4 4 4 3
5 4 3 3 2 2 3 4 6 4 5 6 3 7 6 6 5 3 3 2 2 3 4 4 4 4 4 4 5 5 6 5 5 5 5 5 4 5 4 4 5 4 4 4
4 6 1 3 3 1 4 5 7 5 3 4 4 8 4 3 3 3 3 1 2 3 3 4 3 4 4 5 5 5 5 5 4 4 4 5 4 4 4 4 4 4 4 4
6 7 3 5 5 3 3 3 4 6 5 4 4 7 2 1 2 1 1 1 1 2 3 3 3 3 4 4 4 4 4 4 4 4 4 3 3 3 4 4 4 3 4 4
7 5 7 8 7 4 2 2 4 6 4 4 7 6 5 3 1 2 1 1 1 2 2 2 2 2 2 3 4 4 3 3 3 3 3 3 3 3 4 3 3 3 3 4
5 4 3 3 3 3 3 4 4 5 7 8 7 6 7 5 4 3 1 1 2 2 2 2 2 1 2 2 2 2 2 2 3 3 3 3 2 2 2 3 3 2 3 3
4 4 3 0 1 2 1 2 4 4 4 4 2 5 5 2 1 1 1 2 2 2 2 2 2 1 1 2 3 2 2 1 2 2 2 2 1 1 2 2 2 2 2 2
2 5 4 3 1 2 3 5 5 3 3 6 6 6 1 1 2 3 3 2 3 3 2 2 3 3 3 2 2 3 2 1 1 1 1 2 2 2 2 2 1 2 3 2
6 5 4 3 2 5 8 3 3 4 1 3 3 3 4 4 3 2 2 3 3 2 1 1 1 1 1 1 1 2 2 2 1 1 2 2 2 2 2 1 2 2 2 3
4 7 5 4 3 3 4 1 3 4 1 1 3 3 3 3 4 3 1 0 2 2 1 1 1 1 1 0 1 2 1 1 1 1 2 2 2 2 2 2 3 2 2 3
5 5 6 5 4 6 7 3 1 4 2 2 4 4 4 5 3 3 2 1 0 1 1 1 1 2 2 1 2 2 1 1 1 2 2 2 2 2 3 3 3 2 2 4
4 4 4 4 3 6 5 3 3 4 7 3 4 5 6 5 5 4 2 1 1 1 1 2 3 2 1 1 2 2 1 1 2 2 2 2 2 2 2 2 1 2 2 3
4 3 3 3 3 6 3 2 5 6 2 3 4 4 4 3 2 2 3 2 2 2 3 3 3 2 2 2 2 1 1 2 1 1 1 2 1 2 1 1 2 2 2 3
3 5 5 6 6 5 3 4 3 3 3 2 3 3 5 4 2 2 2 2 2 2 2 2 2 2 2 2 1 0 2 2 1 1 2 2 2 2 2 1 2 2 2 2
1 2 2 1 4 4 3 2 1 1 2 2 3 3 4 4 4 3 3 2 2 1 1 1 2 2 1 1 1 1 2 2 1 1 2 2 2 3 2 2 2 2 2 2
3 2 2 2 4 3 3 2 1 0 2 2 2 2 3 4 3 3 3 2 2 1 0 1 2 1 1 1 1 2 2 1 1 2 2 2 2 2 3 2 2 3 3 3
4 5 5 6 6 4 4 3 1 1 1 2 3 2 1 3 3 3 3 2 2 2 1 1 0 0 1 1 2 2 2 1 1 2 3 2 2 2 2 2 3 3 3 4
Wind_Direction
61 75 189 218 198 188 170 153 239 259 223 157 221 245 214 188 191 196 198 202 203 207 206 191 186 182 173 176 183 185 182 178 162 156 164 172 212 225 231 230 230 224 216 203
41 277 233 201 168 144 144 143 248 298 39 133 279 285 237 197 205 204 202 206 206 199 192 193 189 186 181 182 187 189 190 182 180 180 170 174 175 197 214 242 248 228 212 207
186 235 198 159 155 137 189 187 208 203 24 45 52 327 304 246 216 218 209 204 203 199 197 194 194 194 187 187 190 193 192 189 188 177 147 127 97 56 20 241 242 237 217 215
224 247 178 171 200 161 248 222 190 164 106 313 93 286 295 282 251 232 222 204 204 206 194 192 194 192 196 196 190 188 187 186 186 172 169 173 182 200 216 216 229 249 224 216
238 204 175 203 217 173 212 119 119 125 132 56 21 140 290 329 275 255 236 221 209 200 193 194 197 195 196 191 186 184 181 186 184 179 180 182 196 208 212 209 225 245 249 236
243 237 204 208 192 151 126 70 57 49 69 25 262 168 283 252 237 262 242 223 213 195 191 192 191 183 186 181 180 175 179 192 186 181 182 188 198 199 196 213 222 235 239 241
322 310 272 159 98 59 93 90 43 11 16 257 264 174 254 261 243 245 245 224 208 184 180 179 174 179 183 181 183 180 182 196 192 189 196 199 203 200 206 214 219 223 233 239
188 290 278 205 172 167 157 138 153 186 214 271 327 230 259 283 294 284 253 193 167 171 179 182 181 182 185 183 183 183 190 201 198 197 204 204 202 202 215 218 215 217 224 235
173 246 293 310 141 132 133 139 152 128 133 323 286 291 303 335 350 350 3 99 155 172 180 181 175 174 180 183 187 187 189 199 207 207 203 208 209 211 216 217 218 225 229 236
156 203 289 306 65 36 117 138 100 113 140 228 288 274 255 281 287 306 303 200 179 149 156 165 170 176 178 184 185 184 183 196 208 211 209 217 214 218 218 213 225 229 229 230
135 150 302 23 108 177 98 87 100 106 143 153 225 264 230 223 234 242 257 240 181 164 166 168 175 174 167 169 177 186 192 196 197 206 211 218 216 216 214 218 228 230 231 224
130 120 181 281 287 199 139 148 142 144 193 164 175 261 277 220 226 220 236 230 164 158 153 153 154 149 153 162 169 183 190 195 201 199 199 210 213 207 213 226 232 227 228 227
135 113 88 345 336 3 81 111 125 119 117 154 174 254 303 14 18 331 259 259 104 117 118 122 130 150 168 175 178 182 186 194 195 188 196 206 211 210 222 235 239 234 232 232
119 113 157 190 215 202 175 157 146 126 146 198 218 237 283 303 304 301 285 274 87 105 114 115 139 155 168 178 178 179 184 184 177 173 183 203 219 222 229 238 241 239 239 237
109 138 178 207 213 171 180 188 177 179 184 191 222 216 241 239 224 232 223 136 87 95 115 146 168 173 161 160 165 161 172 171 165 171 191 221 236 237 234 236 243 242 238 241
80 140 142 252 234 176 184 210 191 202 187 198 198 250 255 253 112 86 126 136 136 167 183 187 165 170 178 181 183 171 181 177 149 169 209 232 231 233 239 244 246 240 237 236
106 130 130 213 247 85 250 233 199 189 187 173 201 229 204 127 167 187 188 178 193 204 201 199 193 195 205 207 190 185 186 160 163 194 224 228 221 239 248 251 253 245 242 233
136 121 128 138 111 210 239 243 165 150 195 191 189 190 167 171 188 175 174 184 195 198 203 236 234 215 217 193 169 163 160 152 163 219 243 245 226 237 246 243 250 261 254 241
137 132 120 126 164 254 287 239 166 158 245 219 166 160 133 116 72 14 338 183 188 185 193 211 211 199 176 135 131 128 129 136 149 238 252 255 242 244 249 245 248 249 249 247
64 89 111 125 152 215 238 269 217 113 255 245 174 174 156 119 114 250 248 184 117 75 85 83 65 60 69 38 87 103 102 102 243 256 261 260 250 244 255 255 253 250 250 252
42 49 98 142 189 247 253 287 104 159 232 215 183 182 167 175 193 204 178 152 105 74 70 83 85 75 43 60 98 99 77 275 271 279 285 287 269 256 258 261 256 259 264 269
162 142 157 138 176 248 290 114 173 214 212 157 167 177 169 168 155 133 132 124 103 74 58 72 80 55 22 39 91 79 304 288 300 291 288 294 295 286 283 264 268 263 259 272
186 186 181 185 212 248 269 240 245 179 159 174 168 169 153 148 149 134 134 131 126 112 100 89 95 61 25 27 76 61 303 320 330 334 317 317 323 318 305 283 284 291 281 269
261 132 128 262 278 287 296 294 319 142 155 163 158 154 150 157 161 154 154 151 141 125 128 116 107 86 16 349 1 280 298 328 3 343 323 323 324 323 325 313 286 275 276 278
221 145 125 264 277 319 327 314 297 62 113 116 110 144 169 159 164 168 164 160 156 147 131 129 137 147 278 333 341 317 309 339 352 325 318 318 314 308 316 316 298 278 267 261
209 178 173 218 226 200 246 274 282 139 144 145 125 108 136 166 172 158 159 168 155 152 144 150 170 211 284 329 328 314 307 316 344 320 310 301 296 300 300 298 310 303 271 293